GW0655 Weather Reports


Display with metric or nautical units.
time (UTC)temp
F
wind
direction
speed
MPH
gust
MPH
rain 1hr
in
rain 24hr
in
rain mn
in
humidity
%
barometer
mb
20260901205203 100 64 0.0 1.0 0.00 0.00 0.00 40 1014.8
20260901204659 98 302 3.0 3.0 0.00 0.00 0.00 42 1014.8
20260901204155 98 16 5.0 6.0 0.00 0.00 0.00 41 1014.8
20260901203655 98 261 1.0 1.0 0.00 0.00 0.00 42 1014.8
20260901203150 98 0 3.0 3.0 0.00 0.00 0.00 42 1015.2
20260901202649 98 211 0.0 0.0 0.00 0.00 0.00 41 1014.8
20260901202145 99 122 3.0 3.0 0.00 0.00 0.00 41 1015.2
20260901201641 100 38 0.0 1.0 0.00 0.00 0.00 40 1015.2
20260901201140 102 72 0.0 0.0 0.00 0.00 0.00 39 1015.2
20260901200634 101 129 0.0 1.0 0.00 0.00 0.00 39 1015.2
20260901200129 99 273 1.0 2.0 0.00 0.00 0.00 41 1015.5
20260901195627 101 300 1.0 1.0 0.00 0.00 0.00 41 1015.5
20260901195127 100 204 3.0 3.0 0.00 0.00 0.00 41 1015.5
20260901194622 99 253 1.0 1.0 0.00 0.00 0.00 41 1015.5
20260901194117 100 15 0.0 1.0 0.00 0.00 0.00 41 1015.5
20260901193613 97 177 1.0 2.0 0.00 0.00 0.00 43 1015.5
20260901193107 97 265 1.0 1.0 0.00 0.00 0.00 43 1015.8
20260901192602 97 221 1.0 1.0 0.00 0.00 0.00 43 1015.8
20260901192057 98 274 1.0 2.0 0.00 0.00 0.00 42 1016.2
20260901191553 98 25 1.0 2.0 0.00 0.00 0.00 43 1016.2
20260901191049 97 156 1.0 1.0 0.00 0.00 0.00 42 1015.8
20260901190544 99 138 2.0 3.0 0.00 0.00 0.00 42 1016.2
20260901190043 96 214 0.0 1.0 0.00 0.00 0.00 45 1016.2
20260901185537 96 79 1.0 2.0 0.00 0.00 0.00 45 1016.2
20260901185036 97 343 1.0 1.0 0.00 0.00 0.00 45 1016.2
20260901184531 99 338 2.0 3.0 0.00 0.00 0.00 44 1016.5
20260901184026 99 126 2.0 2.0 0.00 0.00 0.00 44 1016.2
20260901183521 98 240 0.0 1.0 0.00 0.00 0.00 45 1016.5
20260901183017 100 294 3.0 3.0 0.00 0.00 0.00 43 1016.5
20260901182513 99 57 1.0 2.0 0.00 0.00 0.00 43 1016.5
20260901182013 100 217 3.0 3.0 0.00 0.00 0.00 42 1016.9
20260901181512 98 293 2.0 2.0 0.00 0.00 0.00 43 1016.9
20260901181012 98 164 4.0 6.0 0.00 0.00 0.00 45 1016.9
20260901180510 98 268 1.0 1.0 0.00 0.00 0.00 43 1017.2
20260901180010 99 212 2.0 2.0 0.00 0.00 0.00 43 1017.2
20260901175504 98 184 0.0 1.0 0.00 0.00 0.00 44 1017.2
20260901174959 98 172 4.0 6.0 0.00 0.00 0.00 44 1017.2
20260901174455 99 69 2.0 2.0 0.00 0.00 0.00 43 1017.5
20260901173950 97 66 1.0 2.0 0.00 0.00 0.00 44 1017.5
20260901173446 97 44 1.0 2.0 0.00 0.00 0.00 43 1017.9
20260901172942 98 215 2.0 5.0 0.00 0.00 0.00 43 1017.5
20260901172437 97 142 5.0 6.0 0.00 0.00 0.00 43 1017.9
20260901171935 97 290 3.0 5.0 0.00 0.00 0.00 44 1017.9
20260901171433 98 185 1.0 6.0 0.00 0.00 0.00 43 1017.9
20260901170932 96 210 0.0 1.0 0.00 0.00 0.00 47 1017.9
20260901170428 95 310 1.0 2.0 0.00 0.00 0.00 48 1017.9
20260901165927 96 74 0.0 0.0 0.00 0.00 0.00 46 1018.2
20260901165422 95 255 0.0 0.0 0.00 0.00 0.00 47 1017.9
20260901164918 95 286 1.0 1.0 0.00 0.00 0.00 47 1018.2
20260901164418 94 164 5.0 6.0 0.00 0.00 0.00 48 1018.2
20260901163913 95 263 3.0 3.0 0.00 0.00 0.00 49 1018.2
20260901163408 96 146 3.0 3.0 0.00 0.00 0.00 50 1018.2
20260901162902 97 262 1.0 2.0 0.00 0.00 0.00 47 1018.2
20260901162402 96 217 1.0 1.0 0.00 0.00 0.00 47 1018.2
20260901161902 95 262 0.0 0.0 0.00 0.00 0.00 48 1018.5
20260901161355 95 283 1.0 1.0 0.00 0.00 0.00 50 1018.2
20260901160850 94 350 2.0 2.0 0.00 0.00 0.00 51 1018.5
20260901160347 95 156 3.0 5.0 0.00 0.00 0.00 51 1018.5
20260901155846 95 261 3.0 3.0 0.00 0.00 0.00 51 1018.5
20260901155341 92 245 0.0 1.0 0.00 0.00 0.00 54 1018.5
20260901154838 92 54 0.0 0.0 0.00 0.00 0.00 55 1018.5
20260901154336 91 150 0.0 0.0 0.00 0.00 0.00 56 1018.5
20260901153831 92 176 2.0 2.0 0.00 0.00 0.00 54 1018.5
20260901153326 92 262 1.0 1.0 0.00 0.00 0.00 54 1018.2
20260901152825 90 263 1.0 1.0 0.00 0.00 0.00 58 1018.2
20260901152324 92 257 2.0 3.0 0.00 0.00 0.00 54 1018.5
20260901151820 91 212 3.0 5.0 0.00 0.00 0.00 57 1018.2
20260901151314 90 247 0.0 0.0 0.00 0.00 0.00 60 1018.2
20260901150808 91 231 3.0 3.0 0.00 0.00 0.00 59 1018.2
20260901150306 91 245 2.0 3.0 0.00 0.00 0.00 63 1018.2
20260901145803 90 237 0.0 1.0 0.00 0.00 0.00 61 1018.2
20260901145257 89 278 1.0 2.0 0.00 0.00 0.00 65 1018.5
20260901144753 89 348 2.0 2.0 0.00 0.00 0.00 65 1018.5
20260901144248 89 193 3.0 3.0 0.00 0.00 0.00 65 1018.5
20260901143744 89 203 0.0 0.0 0.00 0.00 0.00 66 1018.5
20260901143240 89 273 1.0 1.0 0.00 0.00 0.00 66 1018.5
20260901142736 88 241 1.0 1.0 0.00 0.00 0.00 67 1018.9
20260901142235 87 214 0.0 1.0 0.00 0.00 0.00 70 1018.9
20260901141731 87 216 0.0 1.0 0.00 0.00 0.00 71 1018.5
20260901141231 87 241 1.0 1.0 0.00 0.00 0.00 71 1018.9
20260901140730 86 191 1.0 2.0 0.00 0.00 0.00 73 1018.5
20260901140228 85 207 1.0 2.0 0.00 0.00 0.00 75 1018.9
20260901135723 84 240 1.0 1.0 0.00 0.00 0.00 76 1018.5
20260901135218 84 205 1.0 1.0 0.00 0.00 0.00 78 1018.5
20260901134714 84 210 0.0 1.0 0.00 0.00 0.00 77 1018.5
20260901134209 84 192 1.0 1.0 0.00 0.00 0.00 78 1018.9
20260901133708 84 223 0.0 1.0 0.00 0.00 0.00 78 1018.5
20260901133207 82 181 0.0 0.0 0.00 0.00 0.00 81 1018.5
20260901132706 82 195 0.0 0.0 0.00 0.00 0.00 83 1018.5
20260901132206 81 173 2.0 2.0 0.00 0.00 0.00 83 1018.5
20260901131701 81 200 1.0 1.0 0.00 0.00 0.00 85 1018.5
20260901131200 81 205 0.0 1.0 0.00 0.00 0.00 85 1018.5
20260901130656 79 184 1.0 1.0 0.00 0.00 0.00 88 1018.5
20260901130154 78 202 1.0 2.0 0.00 0.00 0.00 90 1018.2
20260901125653 78 218 0.0 0.0 0.00 0.00 0.00 92 1018.2
20260901125148 77 255 0.0 0.0 0.00 0.00 0.00 92 1018.2
20260901124643 77 239 0.0 0.0 0.00 0.00 0.00 93 1018.2
20260901124143 77 249 0.0 0.0 0.00 0.00 0.00 93 1017.9
20260901123637 76 254 0.0 0.0 0.00 0.00 0.00 93 1017.9
20260901123137 76 253 0.0 0.0 0.00 0.00 0.00 93 1017.9
20260901122636 76 254 0.0 0.0 0.00 0.00 0.00 93 1017.9
20260901122131 76 255 0.0 0.0 0.00 0.00 0.00 93 1017.9
20260901121625 76 256 0.0 0.0 0.00 0.00 0.00 93 1017.9
20260901121121 76 256 0.0 0.0 0.00 0.00 0.00 92 1017.9
20260901120615 76 248 0.0 0.0 0.00 0.00 0.00 92 1017.5
20260901120110 77 246 0.0 0.0 0.00 0.00 0.00 92 1017.5
20260901115605 76 264 0.0 0.0 0.00 0.00 0.00 92 1017.9
20260901115102 77 265 0.0 0.0 0.00 0.00 0.00 91 1017.9
20260901114558 77 265 0.0 0.0 0.00 0.00 0.00 91 1017.9
20260901114057 77 249 0.0 0.0 0.00 0.00 0.00 91 1017.2
20260901113555 77 256 0.0 0.0 0.00 0.00 0.00 90 1017.9
20260901113051 77 260 0.0 0.0 0.00 0.00 0.00 90 1017.5
20260901112551 77 263 0.0 0.0 0.00 0.00 0.00 90 1017.5
20260901112046 77 255 0.0 0.0 0.00 0.00 0.00 89 1017.5
20260901111544 78 257 0.0 0.0 0.00 0.00 0.00 89 1017.5
20260901111043 78 257 0.0 0.0 0.00 0.00 0.00 89 1017.5
20260901110539 78 248 0.0 0.0 0.00 0.00 0.00 88 1017.5
20260901110035 78 257 0.0 0.0 0.00 0.00 0.00 88 1017.5
20260901105531 79 245 0.0 0.0 0.00 0.00 0.00 88 1017.5
20260901105030 79 252 1.0 1.0 0.00 0.00 0.00 88 1017.9
20260901104526 79 226 1.0 2.0 0.00 0.00 0.00 88 1017.9
20260901104022 79 201 2.0 2.0 0.00 0.00 0.00 88 1017.5
20260901103516 79 231 0.0 1.0 0.00 0.00 0.00 88 1017.5
20260901103012 79 254 0.0 0.0 0.00 0.00 0.00 88 1017.5
20260901102512 79 239 1.0 1.0 0.00 0.00 0.00 88 1017.2
20260901102006 79 245 0.0 1.0 0.00 0.00 0.00 87 1017.2
20260901101502 79 196 1.0 1.0 0.00 0.00 0.00 87 1017.2
20260901101001 79 204 1.0 2.0 0.00 0.00 0.00 87 1017.2
20260901100456 79 251 0.0 0.0 0.00 0.00 0.00 86 1017.2
20260901095955 79 251 0.0 0.0 0.00 0.00 0.00 86 1017.5
20260901095454 79 265 1.0 1.0 0.00 0.00 0.00 86 1017.5
20260901094952 79 262 0.0 0.0 0.00 0.00 0.00 85 1017.5
20260901094447 79 227 1.0 1.0 0.00 0.00 0.00 85 1017.5
20260901093946 79 245 0.0 0.0 0.00 0.00 0.00 85 1017.5
20260901093441 79 252 1.0 1.0 0.00 0.00 0.00 85 1017.5
20260901092942 79 223 1.0 1.0 0.00 0.00 0.00 84 1017.5
20260901092438 79 205 1.0 1.0 0.00 0.00 0.00 85 1017.5
20260901091933 79 215 0.0 1.0 0.00 0.00 0.00 85 1017.5
20260901091428 79 197 1.0 1.0 0.00 0.00 0.00 85 1017.5
20260901090923 79 239 1.0 1.0 0.00 0.00 0.00 84 1017.5
20260901090422 79 221 0.0 0.0 0.00 0.00 0.00 84 1017.5
20260901085919 79 226 0.0 0.0 0.00 0.00 0.00 84 1017.5
20260901085414 79 238 0.0 0.0 0.00 0.00 0.00 84 1017.5
20260901084910 79 227 0.0 0.0 0.00 0.00 0.00 84 1017.5
20260901084406 79 218 0.0 1.0 0.00 0.00 0.00 83 1017.9
20260901083901 80 234 0.0 0.0 0.00 0.00 0.00 83 1017.5
20260901083356 80 244 0.0 1.0 0.00 0.00 0.00 82 1017.9
20260901082854 80 231 0.0 0.0 0.00 0.00 0.00 82 1017.5
20260901082349 80 244 0.0 0.0 0.00 0.00 0.00 81 1017.5
20260901081844 81 260 0.0 0.0 0.00 0.00 0.00 80 1017.5
20260901081340 81 212 1.0 1.0 0.00 0.00 0.00 80 1017.5
20260901080839 81 219 1.0 1.0 0.00 0.00 0.00 80 1017.9
20260901080334 81 233 1.0 1.0 0.00 0.00 0.00 80 1017.5
20260901075828 81 205 2.0 2.0 0.00 0.00 0.00 80 1017.5
20260901075323 81 212 2.0 2.0 0.00 0.00 0.00 79 1017.9
20260901074819 81 243 0.0 0.0 0.00 0.00 0.00 79 1017.5
20260901074313 81 232 1.0 2.0 0.00 0.00 0.00 79 1017.5
20260901073808 81 259 0.0 0.0 0.00 0.00 0.00 79 1017.5
20260901073304 81 219 0.0 0.0 0.00 0.00 0.00 78 1017.9
20260901072800 81 237 1.0 1.0 0.00 0.00 0.00 78 1017.5
20260901072259 82 243 1.0 1.0 0.00 0.00 0.00 77 1017.9
20260901071754 82 231 0.0 0.0 0.00 0.00 0.00 77 1017.5
20260901071253 82 229 0.0 1.0 0.00 0.00 0.00 76 1017.9
20260901070752 82 300 1.0 1.0 0.00 0.00 0.00 76 1017.9
20260901070248 82 210 2.0 2.0 0.00 0.00 0.00 75 1017.5
20260901065747 82 204 1.0 2.0 0.00 0.00 0.00 75 1017.5
20260901065243 82 149 2.0 2.0 0.00 0.00 0.00 75 1017.5
20260901064739 83 274 1.0 1.0 0.00 0.00 0.00 74 1017.5
20260901064235 83 240 1.0 1.0 0.00 0.00 0.00 74 1017.5
20260901063732 83 244 1.0 1.0 0.00 0.00 0.00 73 1017.5
20260901063227 83 245 1.0 1.0 0.00 0.00 0.00 73 1017.5
20260901062724 83 239 1.0 1.0 0.00 0.00 0.00 73 1017.5
20260901062219 83 225 2.0 2.0 0.00 0.00 0.00 72 1017.5
20260901061715 83 231 2.0 2.0 0.00 0.00 0.00 72 1017.2
20260901061214 84 264 2.0 3.0 0.00 0.00 0.00 72 1017.2
20260901060709 84 227 1.0 1.0 0.00 0.00 0.00 72 1017.2
20260901060205 83 242 0.0 1.0 0.00 0.00 0.00 73 1017.2
20260901055700 83 207 2.0 2.0 0.00 0.00 0.00 73 1017.2
20260901055157 84 208 0.0 1.0 0.00 0.00 0.00 72 1017.2
20260901054654 84 233 1.0 2.0 0.00 0.00 0.00 71 1017.2
20260901054149 84 228 1.0 1.0 0.00 0.00 0.00 71 1017.2
20260901053645 84 165 2.0 2.0 0.00 0.00 0.00 71 1017.5
20260901053141 84 205 0.0 0.0 0.00 0.00 0.00 70 1017.2
20260901052636 84 247 0.0 1.0 0.00 0.00 0.00 70 1017.5
20260901052131 84 227 1.0 1.0 0.00 0.00 0.00 69 1017.2
20260901051631 85 193 3.0 3.0 0.00 0.00 0.00 68 1017.2
20260901051130 85 237 1.0 2.0 0.00 0.00 0.00 67 1017.2
20260901050625 85 244 2.0 3.0 0.00 0.00 0.00 66 1017.2
20260901050121 85 207 3.0 5.0 0.00 0.00 0.00 65 1017.2
20260901045615 85 169 1.0 2.0 0.00 0.00 0.00 65 1016.9
20260901045110 85 212 1.0 2.0 0.00 0.00 0.00 64 1016.9
20260901044606 85 174 1.0 2.0 0.00 0.00 0.00 64 1017.2
20260901044101 85 235 2.0 3.0 0.00 0.00 0.00 63 1016.9
20260901043557 85 235 1.0 1.0 0.00 0.00 0.00 63 1016.9
20260901043052 85 236 0.0 1.0 0.00 0.00 0.00 63 1016.9
20260901042551 85 241 1.0 2.0 0.00 0.00 0.00 62 1016.9
20260901042047 86 205 1.0 1.0 0.00 0.00 0.00 62 1016.9
20260901041542 86 234 1.0 1.0 0.00 0.00 0.00 61 1016.5
20260901041037 86 99 1.0 2.0 0.00 0.00 0.00 61 1016.9
20260901040536 86 145 3.0 5.0 0.00 0.00 0.00 60 1016.9
20260901040031 86 225 1.0 1.0 0.00 0.00 0.00 59 1016.9
20260901035528 86 220 1.0 1.0 0.00 0.00 0.00 59 1016.9
20260901035027 87 207 2.0 2.0 0.00 0.00 0.00 58 1016.9
20260901034522 87 124 5.0 6.0 0.00 0.00 0.00 58 1016.5
20260901034017 87 141 1.0 2.0 0.00 0.00 0.00 57 1016.9
20260901033515 87 190 3.0 5.0 0.00 0.00 0.00 57 1016.5
20260901033010 87 226 1.0 1.0 0.00 0.00 0.00 56 1016.5
20260901032504 88 202 0.0 1.0 0.00 0.00 0.00 55 1016.5
20260901032003 88 171 0.0 1.0 0.00 0.00 0.00 55 1016.5
20260901031459 88 254 1.0 1.0 0.00 0.00 0.00 54 1016.5
20260901030954 88 151 5.0 5.0 0.00 0.00 0.00 53 1016.5
20260901030449 89 103 2.0 3.0 0.00 0.00 0.00 53 1016.2
20260901025948 89 142 1.0 1.0 0.00 0.00 0.00 52 1016.2
20260901025444 89 148 4.0 6.0 0.00 0.00 0.00 52 1016.2
20260901024943 89 141 1.0 1.0 0.00 0.00 0.00 51 1016.2
20260901024438 89 186 1.0 2.0 0.00 0.00 0.00 50 1016.2
20260901023936 89 189 2.0 2.0 0.00 0.00 0.00 49 1015.8
20260901023431 89 224 0.0 1.0 0.00 0.00 0.00 47 1015.8
20260901022926 90 161 2.0 2.0 0.00 0.00 0.00 47 1015.5
20260901022422 90 94 3.0 3.0 0.00 0.00 0.00 46 1015.5
20260901021916 90 202 2.0 2.0 0.00 0.00 0.00 46 1015.5
20260901021412 90 199 3.0 3.0 0.00 0.00 0.00 45 1015.5
20260901020907 90 157 3.0 3.0 0.00 0.00 0.00 45 1015.5
20260901020403 90 127 1.0 1.0 0.00 0.00 0.00 45 1015.5
20260901015902 91 241 0.0 0.0 0.00 0.00 0.00 45 1015.2
20260901015358 91 244 0.0 1.0 0.00 0.00 0.00 44 1015.2
20260901014857 91 92 1.0 2.0 0.00 0.00 0.00 43 1015.2
20260901014354 92 223 1.0 1.0 0.00 0.00 0.00 43 1015.2
20260901013849 92 188 0.0 0.0 0.00 0.00 0.00 43 1014.8
20260901013345 92 169 1.0 2.0 0.00 0.00 0.00 42 1014.8
20260901012840 92 198 0.0 0.0 0.00 0.00 0.00 42 1014.8
20260901012335 93 239 1.0 1.0 0.00 0.00 0.00 41 1014.8
20260901011831 93 126 2.0 2.0 0.00 0.00 0.00 40 1014.8
20260901011326 93 190 0.0 0.0 0.00 0.00 0.00 40 1014.8
20260901010819 93 119 1.0 1.0 0.00 0.00 0.00 40 1014.5
20260901010314 94 224 0.0 0.0 0.00 0.00 0.00 40 1014.5
20260901005813 94 190 2.0 3.0 0.00 0.00 0.00 39 1014.5
20260901005308 94 233 0.0 1.0 0.00 0.00 0.00 39 1014.5
20260901004803 95 199 2.0 2.0 0.00 0.00 0.00 39 1014.5
20260901004257 95 173 0.0 0.0 0.00 0.00 0.00 38 1014.5
20260901003756 95 139 1.0 2.0 0.00 0.00 0.00 38 1014.5
20260901003251 95 235 0.0 0.0 0.00 0.00 0.00 38 1014.5
20260901002744 96 146 0.0 1.0 0.00 0.00 0.00 38 1014.5
20260901002240 96 153 2.0 2.0 0.00 0.00 0.00 37 1014.5
20260901001735 96 160 0.0 1.0 0.00 0.00 0.00 37 1014.8
20260901001230 96 146 1.0 2.0 0.00 0.00 0.00 37 1014.5
20260901000725 97 175 0.0 1.0 0.00 0.00 0.00 37 1014.5
20260901000220 97 173 3.0 3.0 0.00 0.00 0.00 36 1014.5
20260831235714 97 257 2.0 2.0 0.00 0.00 0.00 36 1014.5
20260831235210 97 207 1.0 2.0 0.00 0.00 0.00 35 1014.5
20260831234709 98 141 3.0 3.0 0.00 0.00 0.00 35 1014.5
20260831234204 98 163 2.0 2.0 0.00 0.00 0.00 35 1014.1
20260831233659 98 123 3.0 7.0 0.00 0.00 0.00 35 1014.5
20260831233154 98 281 1.0 2.0 0.00 0.00 0.00 34 1014.5
20260831232649 99 196 3.0 5.0 0.00 0.00 0.00 34 1014.1
20260831232146 99 190 3.0 3.0 0.00 0.00 0.00 35 1014.5
20260831231642 99 200 2.0 2.0 0.00 0.00 0.00 35 1014.5
20260831231137 99 259 2.0 3.0 0.00 0.00 0.00 35 1014.5
20260831230632 99 106 3.0 6.0 0.00 0.00 0.00 35 1014.5
20260831230127 100 127 3.0 5.0 0.00 0.00 0.00 35 1014.5
20260831225621 100 228 4.0 6.0 0.00 0.00 0.00 35 1014.5
20260831225116 100 111 2.0 3.0 0.00 0.00 0.00 35 1014.5
20260831224606 98 152 1.0 2.0 0.00 0.00 0.00 36 1014.5
20260831224101 98 115 2.0 3.0 0.00 0.00 0.00 36 1014.8
20260831223557 98 185 1.0 2.0 0.00 0.00 0.00 37 1014.8
20260831223053 99 130 3.0 5.0 0.00 0.00 0.00 36 1014.8
20260831222549 100 143 4.0 7.0 0.00 0.00 0.00 36 1014.8
20260831222048 101 152 4.0 6.0 0.00 0.00 0.00 35 1014.8
20260831221544 101 262 0.0 1.0 0.00 0.00 0.00 35 1014.8
20260831221039 100 281 0.0 0.0 0.00 0.00 0.00 36 1014.8
20260831220534 101 58 1.0 2.0 0.00 0.00 0.00 36 1014.8
20260831220030 100 314 0.0 1.0 0.00 0.00 0.00 36 1014.8
20260831215525 100 132 2.0 3.0 0.00 0.00 0.00 37 1014.5
20260831215021 101 71 3.0 3.0 0.00 0.00 0.00 36 1014.8
20260831214518 101 167 6.0 8.0 0.00 0.00 0.00 36 1014.8
20260831214014 100 277 3.0 3.0 0.00 0.00 0.00 36 1014.8
20260831213510 100 202 3.0 5.0 0.00 0.00 0.00 36 1015.2
20260831213010 100 236 4.0 5.0 0.00 0.00 0.00 36 1015.2
20260831212506 100 197 1.0 1.0 0.00 0.00 0.00 37 1015.2
20260831212001 100 146 3.0 3.0 0.00 0.00 0.00 37 1015.2
20260831211456 100 158 3.0 5.0 0.00 0.00 0.00 37 1015.2
20260831210955 100 150 3.0 3.0 0.00 0.00 0.00 36 1015.2
20260831210450 101 207 6.0 7.0 0.00 0.00 0.00 37 1015.2
20260831205946 101 256 3.0 5.0 0.00 0.00 0.00 37 1015.5
20260831205441 101 146 4.0 7.0 0.00 0.00 0.00 36 1015.5